Stations météo

réclame
Mon MeteoGroup
Navacerrada, Espagne (8215): Température de l'air & dewpoint: 05.12.2018 08:00:00 - 11.12.2018 08:00:00 (CET)Navacerrada, Espagne (8215): Vitesse du vent: 05.12.2018 08:00:00 - 11.12.2018 08:00:00 (CET)Navacerrada, Espagne (8215): Direction du vent: 05.12.2018 08:00:00 - 11.12.2018 08:00:00 (CET)Navacerrada, Espagne (8215): visibility: 05.12.2018 08:00:00 - 11.12.2018 08:00:00 (CET)Navacerrada, Espagne (8215): Quantités de précipitations: 05.12.2018 08:00:00 - 11.12.2018 08:00:00 (CET)
Date & Time tt [°C] td [°C] ff [km/h] ff [knt] dd vv [km] rr [mm]
11.12.2018 08:00:00 6,1 -8,6 9 5 NNW 20 0,0
11.12.2018 07:00:00 5,8 -8,5 8 4 NNW 20 -
11.12.2018 06:00:00 6,0 -6,9 9 5 WNW 20 0,0
11.12.2018 05:00:00 6,4 -7,6 8 4 NW 20 0,0
11.12.2018 04:00:00 6,2 -7,8 8 4 NW 20 -
11.12.2018 03:00:00 6,5 -7,5 9 5 NW 20 0,0
11.12.2018 02:00:00 6,6 -7,1 8 4 W 20 0,0
11.12.2018 01:00:00 6,8 -6,6 8 4 WNW 20 -
11.12.2018 00:00:00 6,9 -6,5 8 4 WSW 20 0,0
10.12.2018 23:00:00 6,5 -4,0 4 2 SSW 20 0,0
10.12.2018 22:00:00 6,6 -2,3 4 2 N 20 -
10.12.2018 21:00:00 6,4 -2,5 5 3 N 20 0,0
10.12.2018 20:00:00 6,6 -2,6 8 4 N 20 0,0
10.12.2018 19:00:00 6,5 -2,7 8 4 NE 20 -
10.12.2018 18:00:00 5,9 -3,5 8 4 NE 20 0,0
10.12.2018 17:00:00 6,9 -3,9 5 3 NNW 20 0,0
10.12.2018 16:00:00 8,3 -2,7 5 3 N 30 -
10.12.2018 15:00:00 10,5 -2,6 5 3 NNW 20 0,0
10.12.2018 14:00:00 9,8 -3,2 5 3 NNW 20 0,0
10.12.2018 13:00:00 10,8 -4,9 8 4 NW 30 -
10.12.2018 12:00:00 9,2 -3,7 9 5 NNW 20 0,0
10.12.2018 11:00:00 8,6 -3,6 11 6 N 20 0,0
10.12.2018 10:00:00 6,2 -12,9 11 6 N 30 -
10.12.2018 09:00:00 5,0 -15,0 13 7 N 20 0,0
10.12.2018 08:00:00 4,9 -17,5 13 7 NNW 20 0,0
10.12.2018 07:00:00 4,9 -16,9 13 7 N 20 -
10.12.2018 06:00:00 4,7 -16,4 9 5 NW 20 0,0
10.12.2018 05:00:00 5,0 -15,0 11 6 NW 20 0,0
10.12.2018 04:00:00 5,1 -13,4 13 7 NNW 20 -
10.12.2018 03:00:00 4,9 -13,5 15 8 NNW 20 0,0
10.12.2018 02:00:00 5,0 -14,5 11 6 NNW 20 0,0
10.12.2018 01:00:00 5,5 -14,6 18 10 N 20 -
10.12.2018 00:00:00 5,5 -15,7 18 10 N 20 0,0
09.12.2018 23:00:00 5,2 -16,6 16 9 N 20 0,0
09.12.2018 22:00:00 5,4 -17,8 15 8 NNE 20 -
09.12.2018 21:00:00 5,0 -17,4 15 8 NNE 20 0,0
09.12.2018 20:00:00 5,1 -15,5 18 10 N 20 0,0
09.12.2018 19:00:00 4,8 -11,3 18 10 N 20 -
09.12.2018 18:00:00 4,7 -0,5 21 11 N 20 0,0
09.12.2018 17:00:00 6,5 -2,9 13 7 N 20 0,0
09.12.2018 16:00:00 6,9 -1,3 11 6 N 30 -
09.12.2018 15:00:00 8,1 -0,2 13 7 NNE 20 0,0
09.12.2018 14:00:00 9,0 -0,6 9 5 N 20 0,0
09.12.2018 13:00:00 8,2 0,7 13 7 N 30 -
09.12.2018 12:00:00 7,8 1,4 18 10 N 20 0,0
09.12.2018 11:00:00 7,7 0,6 16 9 N 20 0,0
09.12.2018 10:00:00 6,7 -0,5 18 10 N 30 -
09.12.2018 09:00:00 5,5 -0,6 21 11 N 20 0,0
09.12.2018 08:00:00 6,1 0,6 22 12 N 20 0,0
09.12.2018 07:00:00 5,4 -0,7 18 10 N 19 -
09.12.2018 06:00:00 5,5 -0,8 21 11 N 20 0,0
09.12.2018 05:00:00 5,2 -1,9 21 11 N 20 0,0
09.12.2018 04:00:00 4,1 -3,0 21 11 N 20 -
09.12.2018 03:00:00 3,4 -4,6 18 10 N 20 0,0
09.12.2018 02:00:00 4,0 -6,6 21 11 N 20 0,0
09.12.2018 01:00:00 5,1 -3,5 16 9 N 20 -
09.12.2018 00:00:00 5,8 -0,9 16 9 NNE 20 0,0
08.12.2018 23:00:00 6,2 -1,7 16 9 NNE 20 0,0
08.12.2018 22:00:00 6,4 -2,0 18 10 N 20 -
08.12.2018 21:00:00 6,8 -2,6 21 11 N 20 0,0
08.12.2018 20:00:00 6,9 -0,6 18 10 N 20 0,0
08.12.2018 19:00:00 6,6 -11,6 18 10 N 20 -
08.12.2018 18:00:00 7,0 -6,4 18 10 N 20 0,0
08.12.2018 17:00:00 5,6 -8,3 16 9 N 20 0,0
08.12.2018 16:00:00 5,5 0,3 16 9 NNW 30 -
08.12.2018 15:00:00 6,9 -5,5 13 7 NNW 20 0,0
08.12.2018 14:00:00 6,8 -5,9 13 7 N 20 0,0
08.12.2018 13:00:00 5,7 -7,2 16 9 N 30 -
08.12.2018 12:00:00 4,7 0,3 15 8 N 20 0,0
08.12.2018 11:00:00 2,3 -5,1 21 11 N 20 0,0
08.12.2018 10:00:00 2,6 -7,6 24 13 N 20 -
08.12.2018 09:00:00 -0,5 -0,5 18 10 NE 20 0,0
08.12.2018 08:00:00 0,2 0,2 18 10 NNE 0,1 0,0
08.12.2018 07:00:00 0,2 0,2 16 9 N 0,2 -
08.12.2018 06:00:00 0,5 0,5 16 9 N - 0,0
08.12.2018 05:00:00 1,0 1,0 15 8 N - 0,0
08.12.2018 04:00:00 1,4 1,4 15 8 NNW - -
08.12.2018 03:00:00 1,8 1,8 13 7 NNW - 0,0
08.12.2018 02:00:00 2,3 2,3 11 6 NNW - 0,0
08.12.2018 01:00:00 2,6 2,6 11 6 NNW - -
08.12.2018 00:00:00 2,7 2,7 15 8 NNW - 0,2
07.12.2018 23:00:00 2,8 2,8 15 8 NNW - 0,0
07.12.2018 22:00:00 3,0 3,0 16 9 NNW - -
07.12.2018 21:00:00 3,2 3,2 15 8 NNW - 0,0
07.12.2018 20:00:00 3,5 3,5 21 11 NNW - 0,0
07.12.2018 19:00:00 3,9 3,3 22 12 N 12 -
07.12.2018 18:00:00 4,8 2,7 22 12 NNW 20 0,0
07.12.2018 17:00:00 5,7 2,2 18 10 NNW 20 0,0
07.12.2018 16:00:00 6,9 1,4 16 9 N 30 -
07.12.2018 15:00:00 7,7 0,2 15 8 NNW 20 0,0
07.12.2018 14:00:00 8,0 0,2 18 10 NNW 20 0,0
07.12.2018 13:00:00 7,6 0,1 16 9 N 30 -
07.12.2018 12:00:00 7,0 1,3 16 9 N 20 0,0
07.12.2018 11:00:00 5,2 0,8 13 7 N 20 0,0
07.12.2018 10:00:00 4,9 0,1 24 13 N 30 -
07.12.2018 09:00:00 3,3 -3,5 18 10 N 20 0,0
07.12.2018 08:00:00 4,1 -7,7 18 10 N 20 0,0
07.12.2018 07:00:00 4,5 -16,0 16 9 N 15 -
07.12.2018 06:00:00 4,6 -14,8 15 8 N 20 0,0
07.12.2018 05:00:00 5,6 -20,7 16 9 N 20 0,0
07.12.2018 04:00:00 5,7 -20,7 13 7 N 20 -
07.12.2018 03:00:00 5,7 -18,2 16 9 N 20 0,0
07.12.2018 02:00:00 5,8 -19,7 16 9 N 20 0,0
07.12.2018 01:00:00 6,4 -23,1 15 8 N 20 -
07.12.2018 00:00:00 5,5 -20,0 13 7 NE 20 0,0
06.12.2018 23:00:00 4,9 -15,7 13 7 NE 20 0,0
06.12.2018 22:00:00 4,5 -13,4 15 8 N 20 -
06.12.2018 21:00:00 4,0 -9,4 16 9 N 20 0,0
06.12.2018 20:00:00 5,5 -14,6 18 10 N 20 0,0
06.12.2018 19:00:00 5,7 -14,4 16 9 N 15 -
06.12.2018 18:00:00 4,5 -2,4 15 8 NNE 20 0,0
06.12.2018 17:00:00 5,7 4,2 13 7 N 15 0,0
06.12.2018 16:00:00 8,4 1,8 4 2 NNE 50 -
06.12.2018 15:00:00 9,7 -5,1 9 5 NNE 20 0,0
06.12.2018 14:00:00 9,4 0,5 9 5 NNE 20 0,0
06.12.2018 13:00:00 9,4 2,7 4 2 N 50 -
06.12.2018 12:00:00 7,2 3,8 4 2 NE 20 0,0
06.12.2018 11:00:00 6,2 4,2 9 5 N 15 0,0
06.12.2018 10:00:00 6,2 3,9 4 2 ENE 30 -
06.12.2018 09:00:00 5,2 3,0 9 5 NNE 20 0,0
06.12.2018 08:00:00 5,4 2,6 11 6 N 20 0,0
06.12.2018 07:00:00 5,2 3,0 11 6 NNE 15 -
06.12.2018 06:00:00 4,3 4,3 13 7 N 20 0,0
06.12.2018 05:00:00 4,3 4,3 15 8 NNE 20 0,0
06.12.2018 04:00:00 4,6 4,0 13 7 NNE 20 -
06.12.2018 03:00:00 4,5 3,3 13 7 N 20 0,0
06.12.2018 02:00:00 3,8 2,8 15 8 N 20 0,0
06.12.2018 01:00:00 3,9 3,2 15 8 N 14 -
06.12.2018 00:00:00 3,6 2,4 13 7 N 17 0,0
05.12.2018 23:00:00 4,7 3,0 13 7 N 17 0,0
05.12.2018 22:00:00 5,3 2,3 13 7 N 20 -
05.12.2018 21:00:00 8,3 -6,3 13 7 NNW 20 0,0
05.12.2018 20:00:00 9,4 -9,7 11 6 NNW 20 0,0
05.12.2018 19:00:00 9,6 -9,0 9 5 NW 15 -
05.12.2018 18:00:00 7,8 -4,3 9 5 NNW 20 0,0
05.12.2018 17:00:00 10,9 -6,9 11 6 NNW 20 0,0
05.12.2018 16:00:00 10,8 -3,0 5 3 NW 30 -
05.12.2018 15:00:00 11,1 0,8 9 5 N 20 0,0
05.12.2018 14:00:00 11,6 0,9 11 6 N 20 0,0
05.12.2018 13:00:00 13,2 -0,1 9 5 NNW 30 -
05.12.2018 12:00:00 14,5 -3,3 4 2 W 19 0,0
05.12.2018 11:00:00 12,8 -3,5 9 5 WSW 20 0,0
05.12.2018 10:00:00 10,3 -5,7 13 7 SW 30 -
05.12.2018 09:00:00 8,8 -3,4 18 10 SW 20 0,0
05.12.2018 08:00:00 8,6 -3,9 15 8 SW 20 0,0

tt = Température de l'air
td = dewpoint
ff = Vitesse du vent
dd = Direction du vent
vv = visibility
rr = Quantités de précipitations

stations d'obs. à proximité